Location: Peach Mountain Observatory
(42.3967°N, 83.9367°W)
Time: 15:37:45
(UTC-05:00)

SR - All Passes

Search period start: 25 January 2020 00:00
Search period end: 04 February 2020 00:00
Orbit: 574 x 882 km, 66.7° (Epoch: 25 January)

Date Brightness Start Highest point End Pass type
(mag) Time Alt. Az. Time Alt. Az. Time Alt. Az.
25 Jan - 00:50:55 10° WNW 00:54:42 17° NW 00:58:29 10° N night (unlit)
25 Jan - 06:05:43 10° N 06:09:43 19° NE 06:13:31 10° E visible
25 Jan - 07:47:03 10° NNW 07:52:37 83° WSW 07:57:40 10° SSE daylight
25 Jan - 09:32:46 10° W 09:33:37 10° W 09:34:26 10° WSW daylight
25 Jan - 22:16:08 10° SSW 22:21:51 64° ESE 22:27:44 10° NE night (unlit)
25 Jan - 23:59:32 10° WSW 00:04:27 27° NW 00:09:25 10° NNE night (unlit)
26 Jan - 05:17:00 10° N 05:19:20 12° NNE 05:21:37 10° ENE visible
26 Jan - 06:57:24 10° NNW 07:02:52 52° NE 07:07:51 10° SE visible
26 Jan - 08:40:23 10° WNW 08:44:29 22° WSW 08:48:20 10° SSW daylight
26 Jan - 21:27:14 10° S 21:32:23 34° ESE 21:37:40 10° NE night (unlit)
26 Jan - 23:08:49 10° WSW 23:14:24 44° NW 23:20:04 10° NNE night (unlit)
27 Jan - 00:56:06 10° NW 00:58:06 12° NNW 01:00:06 10° N night (unlit)
27 Jan - 06:08:00 10° NNW 06:12:53 30° NE 06:17:26 10° ESE visible
27 Jan - 07:49:59 10° NW 07:55:11 44° WSW 07:59:55 10° S daylight
27 Jan - 20:39:21 10° SE 20:43:07 18° ESE 20:46:56 10° ENE night (unlit)
27 Jan - 22:18:43 10° SW 22:24:33 76° WNW 22:30:32 10° NNE night (unlit)
28 Jan - 00:03:46 10° W 00:07:40 18° NW 00:11:36 10° N night (unlit)
28 Jan - 05:18:50 10° N 05:22:41 18° NE 05:26:21 10° E visible
28 Jan - 07:00:05 10° NNW 07:05:39 88° WSW 07:10:41 10° SSE visible
28 Jan - 08:45:14 10° W 08:46:42 11° W 08:48:07 10° WSW daylight
28 Jan - 21:29:12 10° SSW 21:34:55 60° ESE 21:40:46 10° NE night (unlit)
28 Jan - 23:12:27 10° WSW 23:17:26 28° NW 23:22:29 10° NNE night (unlit)
29 Jan - 04:30:15 10° N 04:32:17 12° NNE 04:34:18 10° NE visible
29 Jan - 06:10:28 10° NNW 06:15:53 49° NE 06:20:48 10° SE visible
29 Jan - 07:53:21 10° NW 07:57:33 24° WSW 08:01:29 10° SSW daylight
29 Jan - 20:40:23 10° S 20:45:28 32° ESE 20:50:39 10° NE night (unlit)
29 Jan - 22:21:47 10° SW 22:27:25 46° NW 22:33:08 10° NNE night (unlit)
30 Jan - 00:08:50 10° NW 00:11:04 12° NNW 00:13:18 10° N night (unlit)
30 Jan - 05:21:05 10° NNW 05:25:52 28° NE 05:30:19 10° ESE visible
30 Jan - 07:03:00 10° NW 07:08:14 47° WSW 07:12:59 10° S visible
30 Jan - 19:52:37 10° SE 19:56:12 17° ESE 19:59:49 10° ENE visible
30 Jan - 21:31:44 10° SSW 21:37:35 80° WNW 21:43:34 10° NNE night (unlit)
30 Jan - 23:16:38 10° W 23:20:39 18° NW 23:24:41 10° N night (unlit)
31 Jan - 04:31:58 10° N 04:35:40 18° NE 04:39:10 10° E visible
31 Jan - 06:13:08 10° NNW 06:18:40 88° ENE 06:23:40 10° SSE visible
31 Jan - 07:57:54 10° W 07:59:46 12° W 08:01:36 10° WSW daylight
31 Jan - 20:42:17 10° SSW 20:47:58 57° ESE 20:53:47 10° NE visible
31 Jan - 22:25:22 10° WSW 22:30:27 29° NW 22:35:33 10° NNE night (unlit)
01 Feb - 03:43:31 10° NNE 03:45:14 11° NNE 03:46:56 10° NE visible
01 Feb - 05:23:33 10° NNW 05:28:52 47° NE 05:33:45 10° SE visible
01 Feb - 07:06:19 10° NW 07:10:37 25° WSW 07:14:37 10° SSW visible
01 Feb - 19:53:32 10° SSE 19:58:32 30° ESE 20:03:38 10° NE visible
01 Feb - 21:34:46 10° SW 21:40:26 48° NW 21:46:11 10° NNE visible
01 Feb - 23:21:35 10° WNW 23:24:02 12° NNW 23:26:28 10° N night (unlit)
02 Feb - 04:34:11 10° NNW 04:38:51 27° NE 04:43:12 10° ESE visible
02 Feb - 06:16:01 10° NW 06:21:16 50° WSW 06:26:02 10° S visible
02 Feb - 19:05:55 10° SE 19:09:16 16° ESE 19:12:41 10° ENE visible
02 Feb - 20:44:45 10° SSW 20:50:38 84° WNW 20:56:37 10° NNE visible
02 Feb - 22:29:30 10° W 22:33:38 19° NW 22:37:47 10° N visible
03 Feb - 03:45:06 10° N 03:48:37 17° NE 03:51:59 10° ENE visible
03 Feb - 05:26:11 10° NNW 05:31:41 83° ENE 05:36:40 10° SSE visible
03 Feb - 07:10:39 10° WNW 07:12:51 13° WSW 07:14:58 10° SW visible
03 Feb - 19:55:21 10° S 20:01:02 54° ESE 20:06:48 10° NE visible
03 Feb - 21:38:18 10° WSW 21:43:27 30° NW 21:48:37 10° NNE visible
